www.cux-wetter.de
Wetterdaten: Freitag, 27.04.2007
Datum Zeit Temp. A. Feuchte A. Luftdruck Regen Wind Richtung Richtung Sonnenschein Solar Taupunkt Windchill Windben
27.04.2007 00:00 16,4 C 61 % 1021,5 hPa 0,0 l/m 5,7 km/h (2 Bft) SO 125 0 min 0 W/m 8,9 C 16,4 C 5,7 km/h (2 Bft)
27.04.2007 00:15 16,3 C 62 % 1020,5 hPa 0,0 l/m 3,9 km/h (1 Bft) SO 125 0 min 0 W/m 9,0 C 16,3 C 3,9 km/h (1 Bft)
27.04.2007 00:30 16,0 C 62 % 1021,5 hPa 0,0 l/m 4,3 km/h (1 Bft) O-SO 105 0 min 0 W/m 8,7 C 16,0 C 4,3 km/h (1 Bft)
27.04.2007 00:45 15,7 C 63 % 1021,5 hPa 0,0 l/m 0,4 km/h (0 Bft) O 95 0 min 0 W/m 8,7 C 15,7 C 0,4 km/h (0 Bft)
27.04.2007 01:00 15,4 C 64 % 1021,5 hPa 0,0 l/m 3,6 km/h (1 Bft) O-SO 105 0 min 0 W/m 8,6 C 15,4 C 3,6 km/h (1 Bft)
27.04.2007 01:15 15,2 C 65 % 1021,5 hPa 0,0 l/m 0,7 km/h (0 Bft) O-NO 75 0 min 0 W/m 8,7 C 15,2 C 0,7 km/h (0 Bft)
27.04.2007 01:30 15,0 C 65 % 1021,5 hPa 0,0 l/m 0,4 km/h (0 Bft) O 85 0 min 0 W/m 8,5 C 15,0 C 0,4 km/h (0 Bft)
27.04.2007 01:45 14,9 C 66 % 1021,5 hPa 0,0 l/m 0,5 km/h (0 Bft) O 90 0 min 0 W/m 8,6 C 14,9 C 0,5 km/h (0 Bft)
27.04.2007 02:00 14,6 C 67 % 1021,5 hPa 0,0 l/m 0,1 km/h (0 Bft) O 90 0 min 0 W/m 8,5 C 14,6 C 0,1 km/h (0 Bft)
27.04.2007 02:15 14,8 C 67 % 1021,5 hPa 0,0 l/m 0,0 km/h (0 Bft) O 90 0 min 0 W/m 8,7 C 14,8 C 0,0 km/h (0 Bft)
27.04.2007 02:30 14,7 C 68 % 1021,5 hPa 0,0 l/m 0,0 km/h (0 Bft) O 90 0 min 0 W/m 8,9 C 14,7 C 0,0 km/h (0 Bft)
27.04.2007 02:45 14,6 C 67 % 1021,5 hPa 0,0 l/m 0,0 km/h (0 Bft) O 95 0 min 0 W/m 8,5 C 14,6 C 0,0 km/h (0 Bft)
27.04.2007 03:00 14,5 C 68 % 1021,5 hPa 0,0 l/m 0,0 km/h (0 Bft) O 95 0 min 0 W/m 8,7 C 14,5 C 0,0 km/h (0 Bft)
27.04.2007 03:15 14,2 C 68 % 1021,5 hPa 0,0 l/m 4,5 km/h (1 Bft) O-SO 110 0 min 0 W/m 8,4 C 14,2 C 4,5 km/h (1 Bft)
27.04.2007 03:30 14,2 C 69 % 1021,5 hPa 0,0 l/m 0,2 km/h (0 Bft) O 85 0 min 0 W/m 8,6 C 14,2 C 0,2 km/h (0 Bft)
27.04.2007 03:45 14,2 C 70 % 1021,5 hPa 0,0 l/m 0,0 km/h (0 Bft) O-NO 65 0 min 0 W/m 8,8 C 14,2 C 0,0 km/h (0 Bft)
27.04.2007 04:00 14,0 C 70 % 1021,5 hPa 0,0 l/m 0,0 km/h (0 Bft) O-NO 60 0 min 0 W/m 8,6 C 14,0 C 0,0 km/h (0 Bft)
27.04.2007 04:15 13,7 C 71 % 1021,5 hPa 0,0 l/m 0,0 km/h (0 Bft) NO 55 0 min 0 W/m 8,5 C 13,7 C 0,0 km/h (0 Bft)
27.04.2007 04:30 13,7 C 71 % 1021,5 hPa 0,0 l/m 0,0 km/h (0 Bft) NO 55 0 min 0 W/m 8,5 C 13,7 C 0,0 km/h (0 Bft)
27.04.2007 04:45 13,5 C 72 % 1021,5 hPa 0,0 l/m 0,0 km/h (0 Bft) NO 55 0 min 0 W/m 8,6 C 13,5 C 0,0 km/h (0 Bft)
27.04.2007 05:00 13,4 C 72 % 1021,5 hPa 0,0 l/m 0,0 km/h (0 Bft) O-NO 70 0 min 0 W/m 8,5 C 13,4 C 0,0 km/h (0 Bft)
27.04.2007 05:15 13,4 C 73 % 1021,5 hPa 0,0 l/m 0,0 km/h (0 Bft) O 80 0 min 0 W/m 8,7 C 13,4 C 0,0 km/h (0 Bft)
27.04.2007 05:30 13,5 C 73 % 1021,5 hPa 0,0 l/m 0,0 km/h (0 Bft) O 100 0 min 0 W/m 8,8 C 13,5 C 0,0 km/h (0 Bft)
27.04.2007 05:45 13,4 C 73 % 1021,5 hPa 0,0 l/m 0,0 km/h (0 Bft) NO 45 0 min 0 W/m 8,7 C 13,4 C 0,0 km/h (0 Bft)
27.04.2007 06:00 13,3 C 73 % 1021,5 hPa 0,0 l/m 0,0 km/h (0 Bft) NO 40 0 min 0 W/m 8,6 C 13,3 C 0,0 km/h (0 Bft)
27.04.2007 06:15 13,1 C 73 % 1021,5 hPa 0,0 l/m 0,0 km/h (0 Bft) NO 35 0 min 0 W/m 8,4 C 13,1 C 0,0 km/h (0 Bft)
27.04.2007 06:30 13,0 C 73 % 1021,5 hPa 0,0 l/m 0,0 km/h (0 Bft) NO 35 0 min 0 W/m 8,3 C 13,0 C 0,0 km/h (0 Bft)
27.04.2007 06:45 13,1 C 74 % 1021,5 hPa 0,0 l/m 0,0 km/h (0 Bft) O-NO 70 0 min 0 W/m 8,6 C 13,1 C 0,0 km/h (0 Bft)
27.04.2007 07:00 13,2 C 74 % 1021,5 hPa 0,0 l/m 0,3 km/h (0 Bft) O-NO 75 0 min 0 W/m 8,7 C 13,2 C 0,3 km/h (0 Bft)
27.04.2007 07:15 13,3 C 75 % 1021,5 hPa 0,0 l/m 5,9 km/h (2 Bft) O 80 0 min 0 W/m 9,0 C 13,3 C 5,9 km/h (2 Bft)
27.04.2007 07:30 13,7 C 74 % 1022,5 hPa 0,0 l/m 4,2 km/h (1 Bft) O-NO 70 0 min 0 W/m 9,2 C 13,7 C 4,2 km/h (1 Bft)
27.04.2007 07:45 13,7 C 75 % 1022,5 hPa 0,0 l/m 4,7 km/h (1 Bft) O-NO 70 0 min 0 W/m 9,3 C 13,7 C 4,7 km/h (1 Bft)
27.04.2007 08:00 14,2 C 75 % 1022,5 hPa 0,0 l/m 6,7 km/h (2 Bft) O-NO 70 0 min 0 W/m 9,8 C 14,0 C 6,7 km/h (2 Bft)
27.04.2007 08:15 14,4 C 75 % 1022,5 hPa 0,0 l/m 6,1 km/h (2 Bft) NO 50 0 min 0 W/m 10,0 C 14,4 C 6,1 km/h (2 Bft)
27.04.2007 08:30 14,9 C 74 % 1022,5 hPa 0,0 l/m 5,6 km/h (2 Bft) O-NO 60 0 min 0 W/m 10,3 C 14,9 C 5,6 km/h (2 Bft)
27.04.2007 08:45 15,0 C 73 % 1022,5 hPa 0,0 l/m 5,5 km/h (2 Bft) NO 50 0 min 0 W/m 10,2 C 15,0 C 5,5 km/h (2 Bft)
27.04.2007 09:00 15,4 C 72 % 1022,5 hPa 0,0 l/m 5,4 km/h (2 Bft) NO 55 0 min 0 W/m 10,4 C 15,4 C 5,4 km/h (2 Bft)
27.04.2007 09:15 15,6 C 72 % 1022,5 hPa 0,0 l/m 5,6 km/h (2 Bft) NO 40 0 min 0 W/m 10,6 C 15,6 C 5,6 km/h (2 Bft)
27.04.2007 09:30 15,8 C 72 % 1022,5 hPa 0,0 l/m 6,3 km/h (2 Bft) O-NO 60 0 min 0 W/m 10,8 C 15,8 C 6,3 km/h (2 Bft)
27.04.2007 09:45 17,3 C 73 % 1022,5 hPa 0,0 l/m 7,2 km/h (2 Bft) NO 45 0 min 0 W/m 12,4 C 16,9 C 7,2 km/h (2 Bft)
27.04.2007 09:59 21,1 C 63 % 1022,5 hPa 0,0 l/m 7,5 km/h (2 Bft) O-NO 65 0 min 0 W/m 13,8 C 20,7 C 7,5 km/h (2 Bft)
27.04.2007 10:15 21,8 C 59 % 1022,5 hPa 0,0 l/m 11,1 km/h (2 Bft) NO 35 0 min 0 W/m 13,4 C 20,3 C 11,1 km/h (2 Bft)
27.04.2007 10:30 21,7 C 56 % 1022,5 hPa 0,0 l/m 9,8 km/h (2 Bft) NO 40 0 min 0 W/m 12,5 C 20,6 C 9,8 km/h (2 Bft)
27.04.2007 10:45 21,3 C 57 % 1022,5 hPa 0,0 l/m 12,0 km/h (2 Bft) NO 45 0 min 0 W/m 12,4 C 19,5 C 12,0 km/h (2 Bft)
27.04.2007 11:00 20,9 C 57 % 1022,5 hPa 0,0 l/m 9,0 km/h (2 Bft) NO 50 0 min 0 W/m 12,1 C 20,0 C 9,0 km/h (2 Bft)
27.04.2007 11:15 20,8 C 59 % 1023,5 hPa 0,0 l/m 8,6 km/h (2 Bft) NO 50 0 min 0 W/m 12,5 C 20,0 C 8,6 km/h (2 Bft)
27.04.2007 11:30 21,0 C 59 % 1022,5 hPa 0,0 l/m 9,6 km/h (2 Bft) NO 45 0 min 0 W/m 12,7 C 19,9 C 9,6 km/h (2 Bft)
27.04.2007 11:45 21,8 C 57 % 1022,5 hPa 0,0 l/m 11,4 km/h (2 Bft) NO 35 0 min 0 W/m 12,9 C 20,3 C 11,4 km/h (2 Bft)
27.04.2007 12:00 22,2 C 56 % 1022,5 hPa 0,0 l/m 8,0 km/h (2 Bft) N-NO 25 0 min 0 W/m 13,0 C 21,7 C 8,0 km/h (2 Bft)
27.04.2007 12:15 22,4 C 55 % 1022,5 hPa 0,0 l/m 7,9 km/h (2 Bft) NO 35 0 min 0 W/m 12,9 C 21,9 C 7,9 km/h (2 Bft)
27.04.2007 12:30 22,8 C 54 % 1022,5 hPa 0,0 l/m 9,1 km/h (2 Bft) NO 45 0 min 0 W/m 13,0 C 22,0 C 9,1 km/h (2 Bft)
27.04.2007 12:45 23,1 C 54 % 1022,5 hPa 0,0 l/m 9,6 km/h (2 Bft) N-NO 30 0 min 0 W/m 13,3 C 22,2 C 9,6 km/h (2 Bft)
27.04.2007 13:00 23,5 C 53 % 1022,5 hPa 0,0 l/m 9,0 km/h (2 Bft) NO 35 0 min 0 W/m 13,4 C 22,8 C 9,0 km/h (2 Bft)
27.04.2007 13:15 23,5 C 53 % 1022,5 hPa 0,0 l/m 11,0 km/h (2 Bft) N-NO 25 0 min 0 W/m 13,4 C 22,3 C 11,0 km/h (2 Bft)
27.04.2007 13:30 24,1 C 52 % 1022,5 hPa 0,0 l/m 8,9 km/h (2 Bft) NO 35 0 min 0 W/m 13,6 C 23,4 C 8,9 km/h (2 Bft)
27.04.2007 13:45 24,9 C 49 % 1022,5 hPa 0,0 l/m 7,2 km/h (2 Bft) O-NO 75 0 min 0 W/m 13,4 C 24,7 C 7,2 km/h (2 Bft)
27.04.2007 14:00 25,3 C 49 % 1022,5 hPa 0,0 l/m 8,3 km/h (2 Bft) NO 45 0 min 0 W/m 13,8 C 24,8 C 8,3 km/h (2 Bft)
27.04.2007 14:15 25,8 C 44 % 1022,5 hPa 0,0 l/m 7,4 km/h (2 Bft) N 10 0 min 0 W/m 12,6 C 25,6 C 7,4 km/h (2 Bft)
27.04.2007 14:30 25,0 C 52 % 1022,5 hPa 0,0 l/m 12,6 km/h (3 Bft) N-NO 15 0 min 0 W/m 14,4 C 23,7 C 12,6 km/h (3 Bft)
27.04.2007 14:45 24,0 C 55 % 1022,5 hPa 0,0 l/m 15,7 km/h (3 Bft) NO 35 0 min 0 W/m 14,4 C 22,0 C 15,7 km/h (3 Bft)
27.04.2007 15:00 23,9 C 57 % 1022,5 hPa 0,0 l/m 12,8 km/h (3 Bft) N-NO 25 0 min 0 W/m 14,9 C 22,4 C 12,8 km/h (3 Bft)
27.04.2007 15:14 24,0 C 55 % 1022,5 hPa 0,0 l/m 15,8 km/h (3 Bft) N 5 0 min 0 W/m 14,4 C 22,0 C 15,8 km/h (3 Bft)
27.04.2007 15:30 23,7 C 55 % 1022,5 hPa 0,0 l/m 11,5 km/h (2 Bft) N-NO 15 0 min 0 W/m 14,1 C 22,4 C 11,5 km/h (2 Bft)
27.04.2007 15:45 23,5 C 57 % 1022,5 hPa 0,0 l/m 21,4 km/h (4 Bft) N-NO 15 0 min 0 W/m 14,5 C 20,5 C 21,4 km/h (4 Bft)
27.04.2007 16:00 23,4 C 55 % 1022,5 hPa 0,0 l/m 18,4 km/h (3 Bft) N-NO 15 0 min 0 W/m 13,8 C 20,8 C 18,4 km/h (3 Bft)
27.04.2007 16:15 23,2 C 54 % 1022,5 hPa 0,0 l/m 17,5 km/h (3 Bft) N-NO 15 0 min 0 W/m 13,4 C 20,7 C 17,5 km/h (3 Bft)
27.04.2007 16:30 22,9 C 57 % 1021,5 hPa 0,0 l/m 19,4 km/h (3 Bft) N-NO 30 0 min 0 W/m 13,9 C 20,0 C 19,4 km/h (3 Bft)
27.04.2007 16:45 22,6 C 57 % 1021,5 hPa 0,0 l/m 19,3 km/h (3 Bft) N-NO 15 0 min 0 W/m 13,6 C 19,7 C 19,3 km/h (3 Bft)
27.04.2007 16:59 21,8 C 62 % 1021,5 hPa 0,0 l/m 19,3 km/h (3 Bft) NO 35 0 min 0 W/m 14,2 C 18,6 C 19,3 km/h (3 Bft)
27.04.2007 17:15 21,5 C 64 % 1021,5 hPa 0,0 l/m 19,5 km/h (3 Bft) N 10 0 min 0 W/m 14,4 C 18,2 C 19,5 km/h (3 Bft)
27.04.2007 17:30 21,2 C 66 % 1021,5 hPa 0,0 l/m 19,6 km/h (3 Bft) N-NO 15 0 min 0 W/m 14,6 C 17,8 C 19,6 km/h (3 Bft)
27.04.2007 17:45 21,0 C 66 % 1021,5 hPa 0,0 l/m 17,3 km/h (3 Bft) N-NO 15 0 min 0 W/m 14,4 C 18,0 C 17,3 km/h (3 Bft)
27.04.2007 18:00 20,2 C 68 % 1021,5 hPa 0,0 l/m 17,9 km/h (3 Bft) N-NO 20 0 min 0 W/m 14,1 C 16,9 C 17,9 km/h (3 Bft)
27.04.2007 18:15 19,7 C 70 % 1021,5 hPa 0,0 l/m 22,9 km/h (4 Bft) N-NO 25 0 min 0 W/m 14,1 C 15,3 C 22,9 km/h (4 Bft)
27.04.2007 18:30 19,5 C 71 % 1021,5 hPa 0,0 l/m 20,1 km/h (4 Bft) N-NO 15 0 min 0 W/m 14,1 C 15,5 C 20,1 km/h (4 Bft)
27.04.2007 18:45 19,1 C 71 % 1021,5 hPa 0,0 l/m 19,1 km/h (3 Bft) N-NO 15 0 min 0 W/m 13,7 C 15,2 C 19,1 km/h (3 Bft)
27.04.2007 19:00 18,5 C 72 % 1021,5 hPa 0,0 l/m 24,3 km/h (4 Bft) N-NO 25 0 min 0 W/m 13,4 C 13,5 C 24,3 km/h (4 Bft)
27.04.2007 19:15 18,0 C 74 % 1021,5 hPa 0,0 l/m 21,4 km/h (4 Bft) N-NO 25 0 min 0 W/m 13,3 C 13,3 C 21,4 km/h (4 Bft)
27.04.2007 19:30 17,5 C 75 % 1021,5 hPa 0,0 l/m 19,3 km/h (3 Bft) N-NO 30 0 min 0 W/m 13,0 C 13,1 C 19,3 km/h (3 Bft)
27.04.2007 19:45 17,2 C 76 % 1021,5 hPa 0,0 l/m 16,3 km/h (3 Bft) N-NO 25 0 min 0 W/m 12,9 C 13,5 C 16,3 km/h (3 Bft)
27.04.2007 20:00 16,9 C 77 % 1021,5 hPa 0,0 l/m 21,9 km/h (4 Bft) N-NO 25 0 min 0 W/m 12,8 C 11,8 C 21,9 km/h (4 Bft)
27.04.2007 20:15 16,7 C 78 % 1021,5 hPa 0,0 l/m 22,1 km/h (4 Bft) N-NO 20 0 min 0 W/m 12,8 C 11,5 C 22,1 km/h (4 Bft)
27.04.2007 20:30 16,5 C 78 % 1021,5 hPa 0,0 l/m 16,8 km/h (3 Bft) N-NO 30 0 min 0 W/m 12,6 C 12,5 C 16,8 km/h (3 Bft)
27.04.2007 20:45 16,4 C 80 % 1021,5 hPa 0,0 l/m 15,0 km/h (3 Bft) NO 40 0 min 0 W/m 12,9 C 12,9 C 15,0 km/h (3 Bft)
27.04.2007 21:00 16,1 C 80 % 1021,5 hPa 0,0 l/m 21,5 km/h (4 Bft) N-NO 30 0 min 0 W/m 12,6 C 10,8 C 21,5 km/h (4 Bft)
27.04.2007 21:15 16,1 C 80 % 1022,5 hPa 0,0 l/m 18,5 km/h (3 Bft) N-NO 20 0 min 0 W/m 12,6 C 11,5 C 18,5 km/h (3 Bft)
27.04.2007 21:30 16,1 C 80 % 1022,5 hPa 0,0 l/m 14,5 km/h (3 Bft) N-NO 20 0 min 0 W/m 12,6 C 12,7 C 14,5 km/h (3 Bft)
27.04.2007 21:45 16,0 C 81 % 1022,5 hPa 0,0 l/m 15,8 km/h (3 Bft) NO 40 0 min 0 W/m 12,7 C 12,2 C 15,8 km/h (3 Bft)
27.04.2007 22:00 16,0 C 81 % 1022,5 hPa 0,0 l/m 13,6 km/h (3 Bft) N-NO 30 0 min 0 W/m 12,7 C 12,9 C 13,6 km/h (3 Bft)
27.04.2007 22:15 15,9 C 81 % 1022,5 hPa 0,0 l/m 7,2 km/h (2 Bft) NO 40 0 min 0 W/m 12,6 C 15,5 C 7,2 km/h (2 Bft)
27.04.2007 22:30 15,9 C 81 % 1022,5 hPa 0,0 l/m 8,3 km/h (2 Bft) N-NO 25 0 min 0 W/m 12,6 C 14,9 C 8,3 km/h (2 Bft)
27.04.2007 22:45 15,8 C 81 % 1022,5 hPa 0,0 l/m 5,5 km/h (2 Bft) N-NO 15 0 min 0 W/m 12,5 C 15,8 C 5,5 km/h (2 Bft)
27.04.2007 23:00 15,6 C 81 % 1022,5 hPa 0,0 l/m 7,4 km/h (2 Bft) N-NO 25 0 min 0 W/m 12,3 C 15,1 C 7,4 km/h (2 Bft)
27.04.2007 23:15 15,7 C 81 % 1022,5 hPa 0,0 l/m 4,2 km/h (1 Bft) N-NO 30 0 min 0 W/m 12,4 C 15,7 C 4,2 km/h (1 Bft)
27.04.2007 23:30 15,6 C 81 % 1022,5 hPa 0,0 l/m 0,9 km/h (0 Bft) NO 45 0 min 0 W/m 12,3 C 15,6 C 0,9 km/h (0 Bft)
27.04.2007 23:45 15,6 C 81 % 1022,5 hPa 0,0 l/m 5,0 km/h (1 Bft) N-NO 30 0 min 0 W/m 12,3 C 15,6 C 5,0 km/h (1 Bft)
_ Min-Zeit 06:30 14:15 00:15 - 02:15 - - - - 06:30 21:00 02:15
Minimum _ 13,0 C 44 % 1020,5 hPa - 0,0 km/h (0 Bft) - - - - 8,3 C 10,8 C 0,0 km/h (0 Bft)
_ Max-Zeit 14:15 21:45 11:15 00:00 19:00 - - 00:00 00:00 15:00 14:15 19:00
Maximum _ 25,8 C 81 % 1023,5 hPa 0,0 l/m 24,3 km/h
N-NO (4 Bft)
- - 0 min 0 W/m 14,9 C 25,6 C 24,3 km/h
N-NO (4 Bft)
Durchschnitt _ 17,9 C 67 % 1022,0 hPa #0,0 l/m 8,9 km/h (2 Bft) N-NO - #0 min. 0 W/m 11,5 C 16,6 C 8,9 km/h (2 Bft)
copyright by Holger Just